RYR5YA EGGD-LFMU

Flight info

Callsign RYR5YA
Flight time N/A
Altitude 32000
Route EXMOR N92 DAWLY N864 BHD DCT MANIG DCT KORER UM616 USODA UM184 TUPAR DCT CNA DCT SECHE DCT GAI G39 AFRIC
Aircraft B38M/M-SDE1FGHILORVWXY/HB1

Departure

Time 2026-05-06 16:48
Airport Bristol Airport (EGGD)

Arrival

Time N/A
Airport Béziers Vias airport (LFMU)
Time Latitude Longitude Altitude Speed Heading
2026-05-06 16:35 51.38521 -2.71015 618 ft 0 kts 355°
2026-05-06 16:41 51.38520 -2.71015 614 ft 1 kts 355°
2026-05-06 16:41 51.38496 -2.71012 628 ft 4 kts 356°
2026-05-06 16:42 51.38490 -2.71012 627 ft 0 kts 356°
2026-05-06 16:42 51.38491 -2.71012 627 ft 0 kts 356°
2026-05-06 16:45 51.38494 -2.71015 619 ft 1 kts 326°
2026-05-06 16:45 51.38491 -2.71049 621 ft 9 kts 249°
2026-05-06 16:45 51.38453 -2.71254 630 ft 31 kts 266°
2026-05-06 16:45 51.38437 -2.71680 616 ft 43 kts 266°
2026-05-06 16:46 51.38427 -2.72172 620 ft 44 kts 265°
2026-05-06 16:46 51.38406 -2.72655 616 ft 44 kts 266°
2026-05-06 16:46 51.38389 -2.73140 610 ft 36 kts 266°
2026-05-06 16:46 51.38249 -2.73319 631 ft 28 kts 151°
2026-05-06 16:47 51.38223 -2.73065 637 ft 24 kts 88°
2026-05-06 16:47 51.38232 -2.72792 632 ft 29 kts 87°
2026-05-06 16:47 51.38262 -2.72043 620 ft 110 kts 87°
2026-05-06 16:47 51.38339 -2.70427 729 ft 168 kts 83°
2026-05-06 16:48 51.38431 -2.68541 1615 ft 173 kts 85°
2026-05-06 16:48 51.38476 -2.66565 2356 ft 186 kts 85°
2026-05-06 16:48 51.38529 -2.64415 2987 ft 196 kts 86°
2026-05-06 16:48 51.38588 -2.62221 3739 ft 199 kts 86°
2026-05-06 16:49 51.38652 -2.59970 4344 ft 214 kts 85°
2026-05-06 16:49 51.38693 -2.57429 4765 ft 236 kts 94°
2026-05-06 16:49 51.38093 -2.54936 5288 ft 255 kts 128°